This demonstration page uses our WeatherBlox Daily Observations layout. Learn more.

Left ArrowRight Arrow

38.88101, -77.10428

Hourly Observations for July 19, 2020

Temp ( °F °C ) Dew Point ( °F °C ) Humidity (%) Winds ( mph kmh ) Pressure ( in mb ) Visibility ( mi km ) Precip ( " mm )
12:52 am 00:52 Mostly Clear 82 27.8 70 21.1 67 67 SSW 6 9 30.01 1016 10 16.0934 0 0
1:52 am 01:52 Clear 82 27.8 70 21.1 67 67 SW 6 9 30 1016 10 16.0934 0 0
2:52 am 02:52 Clear 80 26.7 71 21.7 74 74 SSW 6 9 29.99 1016 10 16.0934 0 0
3:52 am 03:52 Clear 80 26.7 71 21.7 74 74 S 3 6 29.98 1015 10 16.0934 0 0
4:52 am 04:52 Clear 80 26.7 74 23.3 82 82 Calm 29.97 1015 8 12.87472 0 0
5:52 am 05:52 Mostly Cloudy 80 26.7 74 23.3 82 82 Calm 29.97 1015 10 16.0934 0 0
6:52 am 06:52 Mostly Cloudy 82 27.8 74 23.3 77 77 Calm 29.98 1015 10 16.0934 0 0
7:52 am 07:52 Partly Cloudy 83 28.3 75 23.9 77 77 VRB 3 6 29.99 1016 10 16.0934 0 0
8:52 am 08:52 Partly Cloudy 85 29.4 76 24.4 75 75 Calm 29.98 1015 10 16.0934 0 0
9:52 am 09:52 Partly Cloudy 88 31.1 76 24.4 68 68 E 3 6 29.97 1015 10 16.0934 0 0
10:52 am 10:52 Sunny 90 32.2 74 23.3 59 59 SE 3 6 29.97 1015 10 16.0934 0 0
10:55 am 10:55 Partly Cloudy 90 32.2 74 23.3 59 59 ESE 5 7 29.97 1015 10 16.0934 0 0
11:52 am 11:52 Partly Cloudy 91 32.8 76 24.4 61 61 S 6 9 29.96 1014 10 16.0934 0 0
12:52 pm 12:52 Mostly Cloudy 93 33.9 75 23.9 56 56 S 10 17 29.95 1014 10 16.0934 0 0
1:52 pm 13:52 Mostly Cloudy 94 34.4 74 23.3 52 52 S 9 15 29.93 1014 10 16.0934 0 0
2:52 pm 14:52 Mostly Cloudy 96 35.6 72 22.2 46 46 SSE 8 13 29.92 1013 10 16.0934 0 0
3:52 pm 15:52 Mostly Cloudy 99 37.2 65 18.3 33 33 SSW 10 17 29.89 1012 10 16.0934 0 0
4:52 pm 16:52 Mostly Cloudy 97 36.1 71 21.7 43 43 S 12 19 29.88 1012 10 16.0934 0 0
5:52 pm 17:52 Mostly Cloudy 97 36.1 72 22.2 45 45 S 9 15 29.88 1012 10 16.0934 0 0
6:52 pm 18:52 Partly Cloudy 97 36.1 67 19.4 37 37 SW 13 20 29.87 1012 10 16.0934 0 0
7:52 pm 19:52 Partly Cloudy 93 33.9 75 23.9 56 56 S 9 15 29.86 1011 10 16.0934 0 0
8:52 pm 20:52 Mostly Cloudy 93 33.9 69 20.6 46 46 SW 8 13 29.88 1012 10 16.0934 0 0
9:52 pm 21:52 Partly Cloudy 92 33.3 69 20.6 47 47 SW 6 9 29.9 1013 10 16.0934 0 0
10:52 pm 22:52 Mostly Cloudy 88 31.1 75 23.9 66 66 S 9 15 29.9 1012 10 16.0934 0 0
11:52 pm 23:52 Mostly Cloudy 87 30.6 75 23.9 67 67 S 7 11 29.88 1012 10 16.0934 0 0

Powered by AerisWeather